Regional Weather Roundup
Issued by NWS State College, PA

Home | Current Version | Previous Version | Text Only | Print | Product List | Glossary On
Versions: 1 2 3 4 5 6 7 8 9 10 11 12 13 14 15 16 17 18 19 20 21 22 23 24 25 26 27 28 29 30 31 32 33 34 35 36 37 38 39 40 41 42 43 44 45 46 47 48 49 50
000
ASUS41 KCTP 192310
RWRCTP

REGIONAL WEATHER ROUNDUP
NATIONAL WEATHER SERVICE STATE COLLEGE PA
600 PM EST THU JAN 19 2017

Note: "fair" indicates few or no clouds below 12,000 feet with no
significant weather and/or obstructions to visibility.

* = STATION THAT DOES NOT REPORT PRECIPITATION /E.G. RAIN...SNOW...ETC/
    THUNDER OR FOG.

PAZ002>004-007>009-013>016-020>023-029>032-200000-
WESTERN PENNSYLVANIA

CITY           SKY/WX    TMP DP  RH WIND       PRES   REMARKS
ERIE           CLOUDY    35  33  92 CALM      30.03R
MEADVILLE      CLOUDY    38  32  79 CALM      29.99S
FRANKLIN*        N/A     37  30  75 SW3       30.01S
NEW CASTLE     CLOUDY    39  34  82 SE5       30.00F
BEAVER COUNTY  CLOUDY    37  34  87 SE3       29.99F
BUTLER*        CLEAR     34  28  80 CALM      30.02F
PITTSBURGH INT PTCLDY    39  34  82 CALM      29.98F
PITTSBURGH     CLEAR     39  31  72 CALM      29.98F
INDIANA*       CLEAR     39  34  81 CALM      30.03F
LATROBE        CLEAR     37  34  87 W6        30.02S
WASHINGTON CO* CLEAR     36  34  93 CALM      29.98F
$$

PAZ004>006-010>012-017>019-024>028-033>037-041-042-045-046-049>053-200000-
CENTRAL PENNSYLVANIA

CITY           SKY/WX    TMP DP  RH WIND       PRES   REMARKS
BRADFORD       CLOUDY    34  34 100 VRB5      29.99R
DUBOIS         CLOUDY    37  31  78 SW3       29.99F
CLEARFIELD     CLOUDY    38  33  82 SW3       30.02R
JOHNSTOWN      CLEAR     39  33  79 CALM      29.97S
ALTOONA        CLEAR     39  33  79 NE5       29.99F
STATE COLLEGE  CLEAR     37  32  81 W3        30.03R
WILLIAMSPORT   CLOUDY    39  33  79 CALM      30.02R
SELINSGROVE    CLOUDY    38  33  82 CALM      30.05R
FT INDIANTOWN  CLOUDY    39  37  92 CALM      30.03R
CAPITAL CITY   CLOUDY    41  32  70 CALM      30.03R
HARRISBURG     CLOUDY    39  35  86 CALM      30.02R
YORK           CLOUDY    37  34  89 CALM      30.01S
$$

PAZ038>040-043-044-047-048-054-055-060>062-067>071-200000-
EASTERN PENNSYLVANIA

CITY           SKY/WX    TMP DP  RH WIND       PRES   REMARKS
SCRANTON       CLOUDY    40  33  76 N5        30.02R
MOUNT POCONO   CLOUDY    33  29  85 NW6       29.98R
ALLENTOWN      CLOUDY    43  32  65 W5        30.03R
QUAKERTOWN*    CLOUDY    39  32  75 CALM      30.03R
READING        CLOUDY    42  34  73 NW3       30.03R
LANCASTER      CLOUDY    42  35  76 N3        30.03R
COATESVILLE    PTCLDY    43  36  75 CALM      30.03S
POTTSTOWN      CLOUDY    37  32  82 NW5       30.05R
BLUE BELL      CLOUDY    36  34  93 CALM      30.03R
DOYLESTOWN     CLOUDY    41  34  76 CALM      30.02R
WILLOW GROVE   NOT AVBL
NORTH PHILA    CLOUDY    43  34  70 N3        30.05R
PHILADELPHIA   CLOUDY    46  34  62 N3        30.05R
$$



USA.gov is the U.S. government's official web portal to all federal, state and local government web resources and services.